Location: Carrer del Canonge
(41.4901°N, 2.2931°E)
Time: 14:56:19
(UTC+00:00)

Cosmos 1092 Rocket - Pass Details

Date: 18 September 2020
Orbit: 954 x 995 km, 82.9° (Epoch: 28 October)

Event Time Altitude Azimuth Distance (km) Brightness Sun altitude
Rises 19:50:29 0° 356° (N) 3,643 7.4 -22.0°
Reaches altitude 10° 19:53:02 10° 0° (N) 2,696 6.6 -22.4°
Maximum altitude 19:59:06 59° 80° (E) 1,104 4.0 -23.4°
Enters shadow 20:00:15 51° 121° (ESE) 1,200 4.0 -23.6°
